This is the latest recevied weather packets stored in our database for station/object DH0DM-13. If no packets are shown the sender has not sent any weather packets the latest 10 day(s).
| Time | Temp. | Humidity | Pressure | Rain* | Wind** | Luminosity | Snow |
|---|---|---|---|---|---|---|---|
| 1787773843 | 15.56° C | 83% | 993.6 hPa | 4.06 mm | 0 m/s | - | - |
| 1787773243 | 15.56° C | 82% | 993.6 hPa | 4.06 mm | 0.89 m/s, 106° | - | - |
| 1787772642 | 15.56° C | 81% | 993.5 hPa | 4.06 mm | 0.89 m/s, 103° | - | - |
| 1787772041 | 16.11° C | 80% | 993.5 hPa | 4.06 mm | 1.34 m/s, 93° | - | - |
| 1787771440 | 16.11° C | 80% | 993.5 hPa | 4.06 mm | 1.79 m/s, 65° | - | - |
| 1787770839 | 16.11° C | 80% | 993.3 hPa | 4.06 mm | 4.92 m/s, 149° | - | - |
| 1787770238 | 16.11° C | 80% | 993.5 hPa | 4.06 mm | 0.45 m/s, 73° | - | - |
| 1787769637 | 16.67° C | 79% | 993.4 hPa | 4.06 mm | 2.68 m/s, 69° | - | - |
| 1787769036 | 16.67° C | 79% | 993.3 hPa | 4.06 mm | 2.68 m/s, 82° | - | - |
| 1787768435 | 16.67° C | 79% | 993.2 hPa | 4.06 mm | 5.36 m/s, 65° | - | - |
| 1787767834 | 16.67° C | 78% | 993.2 hPa | 4.06 mm | 1.34 m/s, 54° | - | - |
| 1787767234 | 17.22° C | 77% | 993.4 hPa | 4.06 mm | 3.58 m/s, 79° | - | - |
| 1787766633 | 17.22° C | 77% | 993.2 hPa | 4.06 mm | 4.47 m/s, 52° | - | - |
| 1787766032 | 17.78° C | 76% | 993.4 hPa | 4.06 mm | 3.58 m/s, 55° | - | - |
| 1787765431 | 17.78° C | 75% | 993.5 hPa | 4.06 mm | 4.02 m/s, 63° | - | - |
| 1787764830 | 17.78° C | 74% | 993.1 hPa | 4.06 mm | 4.47 m/s, 55° | - | - |
| 1787764229 | 18.33° C | 74% | 993.2 hPa | 4.06 mm | 6.71 m/s, 54° | - | - |
| 1787763628 | 18.33° C | 74% | 993.3 hPa | 4.06 mm | 4.92 m/s, 99° | - | - |
| 1787763027 | 18.33° C | 74% | 993.3 hPa | 4.06 mm | 9.39 m/s, 69° | - | - |
| 1787762426 | 18.33° C | 74% | 993.4 hPa | 4.06 mm | 4.92 m/s, 81° | - | - |
| 1787761826 | 18.33° C | 74% | 993.5 hPa | 4.06 mm | 8.49 m/s, 147° | - | - |
| 1787761225 | 18.33° C | 74% | 993.4 hPa | 4.06 mm | 6.26 m/s, 82° | - | - |
| 1787760624 | 18.33° C | 75% | 993.3 hPa | 4.06 mm | 9.83 m/s, 96° | - | - |
| 1787760023 | 17.78° C | 79% | 993.3 hPa | 4.06 mm | 2.68 m/s, 91° | - | - |
| 1787759422 | 17.78° C | 78% | 993.5 hPa | 4.06 mm | 3.58 m/s, 68° | - | - |
* Rain since midnight (hover to see other rain measurements)
** Current wind speed in m/s (hover to see current wind gust speed)